Theta_e
348 350 349 348 345 344 348 349 339 349 349 351 346 344 349 349 347 348 348 348 350 349 349 346 348 352 349 346 351 349 348 347 347 351 347 348 348 348 348 346 345 344 342
349 350 349 349 349 349 346 347 347 344 343 345 350 350 349 349 346 349 349 346 349 347 345 349 348 349 350 350 348 345 344 341 342 343 346 345 349 347 349 349 342 343 344
348 348 348 348 350 350 351 347 346 346 345 344 344 347 348 347 349 347 346 343 345 349 350 349 347 347 348 346 347 349 352 352 350 349 349 345 347 348 347 346 346 344 344
348 350 348 349 348 349 349 349 350 348 349 346 345 350 346 346 348 349 349 348 346 346 346 348 348 348 346 350 348 346 345 345 345 349 348 345 349 348 344 347 344 346 344
351 348 349 347 347 350 349 350 350 350 350 348 347 348 349 347 346 347 348 347 349 346 348 348 348 347 347 348 350 350 346 343 344 345 345 343 344 349 348 347 345 345 344
352 350 349 349 348 347 350 350 350 349 348 350 351 351 350 346 350 349 351 350 347 346 346 345 345 346 350 349 347 347 346 345 345 343 342 345 344 344 346 345 341 345 342
354 349 352 350 348 348 349 348 347 347 346 345 345 344 346 348 348 351 350 350 348 346 346 347 344 345 345 346 345 345 343 344 344 343 343 345 348 344 343 341 340 341 344
347 350 351 352 353 352 348 346 346 346 347 346 345 346 346 347 347 345 346 348 346 341 339 345 349 348 347 348 347 346 343 344 345 344 343 344 343 342 342 340 340 342 340
344 345 344 346 346 350 350 350 350 349 348 347 346 346 345 346 346 347 346 347 344 341 342 344 344 345 344 344 344 347 346 345 343 342 343 344 342 342 341 341 339 336 335
339 343 343 342 347 345 345 345 346 346 346 348 348 349 348 345 345 346 345 341 340 344 348 345 345 346 344 344 344 344 345 344 342 340 341 342 341 338 338 338 338 334 325
340 340 343 341 344 344 342 340 340 340 340 340 345 347 348 347 347 346 344 344 343 341 345 345 345 344 342 343 343 343 343 342 337 335 335 334 332 332 334 334 333 334 331
341 340 341 340 340 339 335 335 335 336 338 338 343 343 343 343 343 344 343 342 341 341 341 342 344 343 341 340 341 339 334 331 327 325 326 327 329 331 332 331 330 329 319
340 340 335 332 335 336 336 336 336 337 336 338 339 339 339 339 339 339 339 339 339 340 341 342 340 336 334 334 334 334 334 333 330 328 329 328 328 328 328 325 321 315 310
341 337 334 336 333 335 337 335 337 337 337 337 336 335 334 334 335 335 336 336 335 333 338 337 336 335 335 334 334 333 332 329 328 326 326 326 325 322 319 312 305 304 308
338 338 337 335 334 334 335 336 336 336 335 335 336 336 335 334 335 335 336 336 336 336 335 335 334 334 333 332 330 327 326 325 325 324 322 320 314 310 308 307 310 309 311
336 335 334 334 335 332 333 335 334 334 334 334 334 334 333 332 332 333 333 333 333 334 333 333 332 331 329 328 326 325 323 321 318 316 314 312 310 307 307 306 306 309 309
335 335 335 335 334 334 333 333 333 332 332 331 331 331 330 329 328 327 329 328 328 328 327 328 327 325 325 322 320 317 315 314 312 311 309 308 307 306 307 308 308 308 309
332 332 332 330 330 331 331 331 330 329 327 327 327 327 326 325 324 324 324 324 323 323 323 322 322 321 316 312 311 309 308 307 307 306 306 305 306 307 306 307 307 308 308
321 323 322 322 323 324 324 325 325 324 322 324 322 320 318 316 316 316 317 317 314 315 315 314 312 310 309 308 307 306 305 304 304 304 303 304 303 305 306 307 307 306 308
320 315 315 312 315 321 323 324 324 324 323 321 319 316 313 310 310 310 311 313 316 317 315 313 312 309 308 307 306 304 303 303 302 301 305 306 306 307 307 307 305 305 304
320 318 319 318 316 315 318 319 320 320 320 319 317 315 308 311 313 313 310 313 316 317 315 315 313 312 309 308 306 305 305 304 304 305 306 306 305 305 305 305 304 304 304
321 320 319 321 320 318 317 317 316 315 313 313 312 312 309 310 314 314 314 315 315 315 315 314 313 313 312 311 309 307 307 307 305 306 305 305 304 302 303 302 302 302 302
322 321 320 320 320 321 320 318 317 317 316 314 312 311 310 305 308 310 310 311 312 314 314 313 313 312 310 308 309 307 305 305 305 304 304 303 302 301 300 300 301 303 303
322 322 320 319 318 319 319 320 318 317 317 316 315 313 311 309 311 312 313 312 312 313 313 313 312 311 311 310 309 309 308 306 305 304 303 303 302 302 303 303 303 304 304
320 321 321 319 317 317 316 316 317 317 316 315 314 314 314 313 312 312 313 313 313 313 313 312 312 311 311 311 310 309 308 307 305 304 304 304 304 304 303 304 304 304 305
321 320 320 321 319 317 317 316 315 315 315 315 315 314 315 315 314 314 313 313 313 313 313 313 312 312 311 311 311 309 309 308 306 305 303 304 305 305 305 305 306 306 306
Wind_Speed
24 24 20 19 16 20 19 15 23 17 13 11 16 17 14 15 13 16 14 17 10 18 12 14 13 10 13 17 11 8 2 7 8 7 6 8 9 5 11 15 12 8 10
24 26 24 22 18 18 16 20 17 19 22 20 12 14 15 14 14 17 17 17 13 14 12 10 13 13 13 12 8 8 13 13 14 14 15 8 9 9 10 11 15 9 11
26 26 25 24 22 21 21 17 14 14 15 15 17 17 16 15 16 18 18 16 18 16 14 14 13 15 15 16 17 19 12 9 11 14 13 9 9 7 7 10 14 16 10
28 27 25 24 22 21 19 18 21 16 15 13 16 17 17 17 18 18 17 17 17 20 15 15 16 17 19 20 19 19 19 22 19 16 17 15 12 13 18 15 15 15 9
28 27 27 25 23 20 20 19 16 17 17 16 15 17 16 15 17 17 17 19 17 16 18 17 16 19 20 21 19 21 18 17 19 18 19 17 12 7 8 12 15 11 9
28 27 23 23 22 24 24 23 23 22 23 21 16 15 17 16 17 15 17 18 15 16 19 19 20 19 20 21 23 24 25 21 21 19 19 16 15 13 10 9 8 13 10
8 24 17 21 23 24 24 24 23 22 21 21 21 21 22 21 20 19 18 20 20 19 17 15 16 19 21 22 22 22 24 23 23 21 19 16 15 14 15 13 11 11 14
19 14 14 16 16 18 20 20 20 21 21 22 22 21 22 24 22 21 21 23 23 21 18 18 16 17 18 18 22 17 21 20 20 21 22 23 20 19 16 14 11 10 9
23 16 15 17 16 14 16 15 14 16 19 22 23 24 23 23 23 23 21 19 22 23 21 24 24 22 23 21 18 21 20 18 16 16 17 20 20 17 13 12 8 7 5
20 26 17 18 13 14 14 15 13 12 11 16 19 23 25 31 28 28 25 21 22 16 20 23 22 21 22 22 17 20 22 21 17 17 21 21 19 15 13 13 11 10 5
10 15 20 15 15 14 9 3 6 10 15 15 18 20 22 24 25 26 23 23 21 20 21 22 22 20 16 20 19 19 22 21 19 19 17 15 12 12 13 13 11 10 9
8 10 20 13 11 9 5 6 15 17 21 22 22 20 22 25 26 27 29 25 20 21 20 21 23 20 17 15 21 19 13 11 11 8 5 5 5 4 6 8 10 11 7
8 12 9 4 6 8 9 16 15 15 19 17 14 12 11 14 16 20 23 22 19 16 18 20 19 8 3 2 5 7 8 9 10 11 11 9 9 11 10 7 4 4 6
9 13 10 10 10 14 11 11 9 7 4 2 3 2 4 7 8 9 9 11 9 8 8 7 7 7 7 6 8 9 8 7 9 9 7 8 6 4 2 2 0 3 2
11 12 12 10 9 9 10 11 10 8 4 4 4 2 2 1 2 1 5 6 6 8 8 9 10 9 8 7 6 5 5 5 5 5 4 3 4 3 3 4 3 4 4
9 10 9 6 5 6 8 8 7 7 6 5 6 7 7 6 5 5 4 3 5 5 7 7 7 8 7 6 6 7 7 6 6 3 1 2 2 2 4 6 5 6 3
4 6 6 5 5 6 6 5 5 6 4 4 7 8 7 6 6 5 6 4 4 5 6 7 7 7 7 7 6 6 5 5 6 8 6 5 6 6 5 4 6 4 0
7 7 6 5 4 6 7 6 4 3 3 4 4 4 4 3 3 4 3 3 3 2 4 4 4 4 5 5 5 6 6 4 5 7 8 8 9 8 9 5 6 8 3
8 6 4 4 5 5 5 6 5 6 1 3 6 5 5 3 2 1 3 4 3 3 1 2 3 3 4 5 5 6 5 6 8 9 8 7 9 4 4 6 9 8 8
1 6 7 3 7 7 7 4 3 2 2 3 2 0 1 1 1 2 4 5 6 2 4 2 3 3 3 3 4 4 5 5 7 7 5 5 8 8 8 9 4 2 7
1 3 6 4 3 4 7 6 5 6 5 2 3 7 3 4 3 6 2 3 6 5 6 5 6 6 5 5 5 4 4 5 5 7 9 10 10 12 12 10 9 11 10
6 3 2 4 7 4 3 3 3 4 5 5 7 7 7 6 7 6 3 5 5 6 9 9 10 9 8 8 8 7 9 9 9 12 13 12 12 12 12 12 10 7 5
6 7 6 6 4 4 7 6 6 5 5 4 5 5 6 6 7 5 6 9 5 9 11 10 11 10 9 8 11 9 9 12 14 13 13 14 12 11 9 8 7 5 4
8 8 8 7 8 8 7 7 7 8 8 6 7 8 5 2 3 7 4 4 6 6 5 7 6 5 7 10 7 6 8 11 10 11 11 11 8 8 6 6 6 7 7
11 11 10 11 10 8 9 9 8 8 8 8 8 7 8 7 7 7 7 5 7 7 9 10 9 7 10 12 8 9 9 12 10 10 10 10 7 10 8 9 9 8 5
12 12 12 9 9 11 10 9 10 10 9 9 8 8 7 7 7 7 8 8 8 8 9 10 11 12 12 12 11 10 13 14 13 14 13 10 12 13 10 11 9 11 11
Wind_Direction
199 211 210 215 217 214 214 220 215 215 216 240 234 240 234 231 228 245 245 228 242 249 251 252 263 260 269 258 272 262 309 296 278 253 344 328 334 316 313 302 309 320 355
199 206 206 215 214 217 229 229 227 228 231 234 228 228 234 236 228 240 251 244 254 260 272 269 264 269 279 285 295 311 288 291 296 291 283 290 322 307 303 315 297 298 326
196 201 208 208 211 215 230 221 237 238 237 244 241 239 241 236 235 241 253 250 240 244 249 262 265 271 261 268 264 269 259 287 272 261 261 270 286 258 287 300 279 275 304
192 201 199 207 211 213 224 232 235 240 255 252 238 238 252 251 245 247 256 260 250 249 246 258 258 261 266 270 265 262 269 268 269 270 270 280 271 280 290 231 254 262 289
197 196 201 204 210 214 222 228 232 237 248 250 252 247 251 258 255 257 250 257 256 253 245 245 246 252 258 263 272 276 277 265 264 272 279 277 278 257 210 231 245 242 261
186 203 201 206 211 218 224 229 230 231 240 248 244 245 255 255 244 253 256 262 261 262 256 256 252 253 253 260 256 263 270 268 270 278 277 279 271 268 259 239 253 224 220
232 188 196 197 209 222 222 226 232 236 237 239 243 242 242 251 245 246 245 253 258 264 267 268 274 265 263 267 264 265 258 262 265 269 270 259 259 266 263 259 261 251 229
239 232 208 210 217 227 231 236 237 241 243 247 251 255 252 253 253 247 250 253 257 258 257 256 263 267 267 265 264 262 266 265 260 258 256 258 260 264 270 257 243 230 210
232 218 216 222 224 224 233 229 239 251 252 252 257 257 253 255 258 252 251 259 264 260 263 254 254 260 265 265 257 262 265 269 268 259 249 241 248 255 249 227 203 184 213
244 233 226 211 204 218 228 232 238 254 269 266 261 261 255 260 262 249 255 270 262 258 254 264 265 260 262 262 259 244 257 269 262 247 242 242 245 237 216 199 205 185 128
238 241 224 210 204 207 223 225 290 287 269 269 266 265 270 262 256 252 257 260 255 246 249 253 257 265 272 264 257 251 245 245 232 230 230 224 210 200 200 205 223 224 245
254 242 219 207 214 195 257 285 305 289 296 287 270 261 262 265 269 266 261 248 253 264 259 250 249 259 274 263 256 229 228 230 207 211 208 197 190 197 220 233 245 257 271
205 207 151 165 246 229 230 285 294 273 278 280 268 263 272 270 268 272 261 257 261 249 242 239 242 221 225 183 212 242 261 254 238 227 237 248 260 275 271 281 292 285 260
168 184 199 203 206 258 236 247 231 205 218 262 255 245 307 302 283 260 253 265 267 265 257 219 212 216 240 263 247 240 244 248 249 256 250 258 266 290 332 10 291 170 160
157 167 172 175 174 181 182 188 178 175 187 177 207 188 138 312 290 194 218 251 243 231 235 234 228 225 219 217 218 211 227 228 215 200 177 165 142 125 122 142 214 212 161
159 163 168 176 166 181 190 185 186 197 229 225 238 250 246 263 271 259 227 226 241 236 229 213 214 213 209 205 194 191 181 164 148 141 155 207 255 171 199 202 187 167 169
169 165 170 170 173 168 176 178 191 205 214 225 212 225 220 238 242 251 269 244 216 213 214 207 198 198 209 192 188 184 201 208 188 164 165 181 164 163 157 167 150 119 180
118 132 135 132 161 163 167 162 163 150 147 146 151 175 185 186 211 220 201 173 175 190 203 199 187 197 185 185 204 181 172 181 219 210 201 216 219 220 186 185 177 169 187
100 111 111 114 123 118 99 92 76 85 46 123 131 130 117 103 93 102 136 133 119 58 87 167 183 193 205 207 213 228 217 216 229 235 235 210 201 175 147 211 213 216 205
74 132 131 157 130 115 129 142 149 98 74 64 57 63 136 178 190 170 163 148 102 118 287 342 317 252 258 265 259 250 241 230 222 205 192 205 200 173 211 220 238 177 189
260 148 152 192 53 90 150 171 179 170 173 201 212 262 349 127 3 5 160 105 155 204 217 224 251 267 238 253 252 238 222 252 213 171 195 214 227 199 206 219 232 215 221
216 213 195 190 192 214 190 213 218 193 195 200 232 254 288 189 172 213 220 222 236 198 250 225 225 236 235 252 262 233 204 238 218 206 219 220 234 217 227 229 213 226 210
233 238 238 238 253 194 210 222 229 226 239 248 244 275 306 218 191 210 253 226 252 205 238 247 261 242 257 253 243 250 230 215 236 246 237 236 240 228 228 213 195 191 179
260 254 243 249 238 236 242 236 232 235 222 221 218 234 261 234 232 221 234 238 224 240 252 242 269 269 251 266 265 262 234 223 239 263 220 242 222 217 213 187 201 197 208
249 259 247 234 241 249 248 246 246 241 239 236 234 233 228 226 221 226 244 231 239 234 239 242 256 248 242 253 242 244 241 249 254 232 245 203 224 233 215 205 209 225 227
243 251 257 249 229 237 245 249 248 245 242 238 239 238 240 242 245 247 244 245 247 249 247 252 252 243 237 251 251 231 239 260 268 268 252 221 215 217 226 201 224 225 240